Home > Weather > Raleigh > Past weeks

Flag for USA Past Weather in Raleigh, North Carolina, USA — Yesterday and Last 2 Weeks

Now
83 °F

Passing clouds.


Feels Like: 89 °F
Forecast: 75 / 92 °F
Wind: 5 mph from South

Location: Raleigh-Durham International Airport

Current Time: Aug 27, 2016 at 1:04:04 AM

Latest Report: Aug 26, 2016 at 11:51 PM


Visibility: 10 mi

Pressure: 30.08 "Hg

Humidity: 72%

Dew Point: 73 °F

Location of RaleighLocation

Past Weather in Raleigh — Graph

°F

Raleigh Temperature Yesterday

Maximum temperature yesterday: 97 °F (at 3:51 PM)
Minimum temperature yesterday: 73 °F (at 4:51 AM)
Average temperature yesterday: 85 °F

High & Low Weather Summary for the Past Weeks

 TemperatureHumidityPressure
High97 °F (Aug 26, 3:51 PM)97% (Aug 20, 1:51 AM)30.31 "Hg (Aug 20, 1:51 AM)
Low65 °F (Aug 23, 6:51 AM)35% (Aug 22, 3:51 PM)29.80 "Hg (Aug 21, 4:51 AM)
Average82 °F70%30.07 "Hg
* Reported Aug 11 11:51 PM — Aug 26 11:51 PM, Raleigh, Weather by CustomWeather, © 2016

Note: Actual official high and low records may vary slightly from our data, if they occured in-between our weather recording intervals... More about our weather records

Advertising

Raleigh Weather History for the Previous 24 Hours

Scroll right to see more
 ConditionsComfort  
Time TempWeatherWind HumidityBarometerVisibility
11:51 PM
Fri, Aug 26
83 °FPassing clouds.5 mph72%30.08 "Hg10 mi
10:51 PM81 °FPassing clouds.No wind79%30.07 "Hg10 mi
9:51 PM83 °FPassing clouds.No wind74%30.06 "Hg10 mi
8:51 PM86 °FPassing clouds.3 mph70%30.04 "Hg10 mi
7:51 PM89 °FScattered clouds.3 mph59%30.03 "Hg10 mi
6:51 PM93 °FScattered clouds.6 mph52%30.01 "Hg10 mi
5:51 PM95 °FScattered clouds.6 mph43%30.01 "Hg10 mi
4:51 PM95 °FScattered clouds.No wind40%30.02 "Hg10 mi
3:51 PM97 °FScattered clouds.7 mph37%30.03 "Hg10 mi
2:51 PM94 °FScattered clouds.6 mph44%30.04 "Hg10 mi
1:51 PM96 °FScattered clouds.5 mph38%30.06 "Hg10 mi
12:51 PM93 °FScattered clouds.No wind49%30.07 "Hg10 mi
11:51 AM93 °FScattered clouds.6 mph49%30.08 "Hg10 mi
10:51 AM90 °FScattered clouds.8 mph56%30.09 "Hg10 mi
9:51 AM85 °FPassing clouds.3 mph65%30.09 "Hg10 mi
8:51 AM80 °FPassing clouds.No wind74%30.08 "Hg10 mi
7:51 AM76 °FPassing clouds.6 mph85%30.08 "Hg10 mi
6:51 AM73 °FPassing clouds.5 mph90%30.08 "Hg10 mi
5:51 AM73 °FPassing clouds.5 mph90%30.07 "Hg10 mi
4:51 AM73 °FPassing clouds.7 mph90%30.07 "Hg10 mi
3:51 AM74 °FPassing clouds.6 mph88%30.08 "Hg10 mi
2:51 AM74 °FPassing clouds.6 mph85%30.08 "Hg10 mi
1:51 AM77 °FPassing clouds.No wind77%30.08 "Hg10 mi
Weather by CustomWeather, © 2016

See weather overviewHow to use our weather pages